COSMOS 2143

导读 | 豆包AI

COSMOS 2143是独联体(CIS)于1991年5月16日9时发射的卫星,隶属于苏联/俄罗斯“宇宙”系列卫星项目,该系列涵盖军用侦察、空间物理探测等多类航天任务。作为冷战末期航天活动产物,它延续了苏联空间技术探索脉络,体现了当时独联体继承苏联航天遗产后延续空间部署的发展脉络,在全球航天发展进程中留下了印记。

Basic Information
目录编号:
21299
目录名称:
COSMOS 2143
国际标识:
1991-033A
轨道中心:
EARTH
卫星名称:
COSMOS 2143
卫星全名:
--
卫星状态:
在轨 (已飞行12768 天)
发射日期:
1991-05-16 UTC
国别 :
俄罗斯(独联体) (CIS)
星等 :
--
Orbit Information
数据来源 国际轨道数据 AOE轨道数据
星历时间 2026-04-30T16:29:47+0800
14小时前
查看轨道信息
2026-04-30T11:00:00+0800
20小时前
查看轨道信息
半长轴 7784.913km 7784.9km
偏心率 0.0013176 0.001319
轨道倾角 82.575° 82.573°
近地点辐角 157.770° 159.755°
升交点赤经 333.396° 333.544°
平近点角 15.436° 51.935°
近地点 1396.518km 1396.494km
远地点 1417.034km 1417.032km
周期 113.931分钟 113.930分钟
每日圈数 12.639275 12.639307
Detailed Information
使用方式:
暂无
2D Orbit Map
3D Orbit Map
Orbit Altitude Analysis Chart
Orbit Inclination Analysis Chart
Orbit Comprehensive Analysis Chart
View Comprehensive Chart